STARLINK-35589

Last updated on Fri Dec 12 2025 00:02:05 GMT+0000 (Coordinated Universal Time)

1 66426U 25259E 25345.57399874 .00071331 00000+0 16972-2 0 9999 2 66426 43.0045 54.7078 0002676 276.4761 83.5790 15.40728589 5980
UTC large
Height (km)
Speed (km/s)
/
Latitude / Longitude
Inclination (degrees)
Orbital Period (minutes)
Azimuth
Elevation
Range (km)
Doppler Factor

Next 0 passes for location: London (51.5072 / 0.1276)

Sorry there are no passes over London.